Location: Cubitt Town
(51.4833°N, 0.0000°E)
Time: 23:28:51
(UTC+00:00)

Cosmos 1726 Rocket - Pass Details

Date: 15 May 2026
Orbit: 555 x 660 km, 82.5° (Epoch: 6 June)

Event Time Altitude Azimuth Distance (km) Brightness Sun altitude
Exits shadow 21:25:49 19° 145° (SE) 1,360 4.7 -12.2°
Maximum altitude 21:28:06 34° 92° (E) 928 4.2 -12.4°
Drops below altitude 10° 21:31:47 10° 27° (NNE) 1,853 6.4 -12.7°
Sets 21:34:06 0° 18° (NNE) 2,760 7.5 -12.9°
